Temperature
26 27 27 28 28 29 28 28 28 28 28 28 28 28 28 27 27 27 26 25 24 23 22 21 21 20 20 20 20 19 19 19 19 18 18 18 18 17 17 17 17 17 17 17
26 26 28 28 28 27 28 28 28 28 28 27 28 28 28 27 27 26 25 25 24 24 22 21 20 20 20 20 20 19 19 19 19 18 18 18 17 17 17 17 17 17 17 17
26 27 28 27 27 26 27 27 28 27 27 28 27 27 28 28 26 25 25 24 24 23 23 21 20 20 20 20 19 19 20 19 19 18 18 18 18 17 17 17 17 17 17 17
27 27 26 26 27 27 27 28 27 27 27 28 28 27 28 28 27 26 25 24 24 23 22 21 21 20 20 20 20 19 19 19 19 19 18 18 17 17 17 17 17 17 17 16
26 27 26 26 27 27 27 27 27 27 27 27 27 27 28 28 27 27 25 24 23 23 22 21 21 20 20 19 19 19 19 19 19 19 18 18 17 17 17 17 17 17 16 16
27 27 27 27 27 27 27 27 27 27 27 26 27 27 27 28 27 27 26 24 23 22 22 21 20 20 20 19 19 19 19 19 19 18 18 18 18 17 17 17 16 16 16 16
25 26 26 26 26 26 26 26 26 26 26 27 27 27 27 27 27 26 25 24 22 22 21 21 20 20 19 19 19 18 18 18 18 18 18 18 18 17 17 17 16 16 16 16
25 25 26 26 26 26 26 27 26 26 26 27 26 26 27 27 25 24 24 23 22 21 21 20 20 19 19 18 18 18 18 18 18 18 18 17 17 17 17 16 16 16 16 16
26 26 26 26 26 27 26 27 28 27 26 26 27 27 26 26 25 24 24 23 22 21 20 20 19 19 19 18 18 18 18 17 17 17 17 17 17 17 16 16 16 16 16 15
26 25 26 26 26 26 27 27 26 26 25 25 26 26 27 26 25 25 24 23 22 21 20 19 19 19 18 18 18 17 17 17 17 17 17 17 17 16 16 16 16 16 16 15
25 24 25 25 25 26 25 26 26 26 26 25 25 26 26 25 25 25 24 23 22 21 20 19 18 18 18 18 18 17 17 17 17 17 16 16 16 16 16 16 16 15 15 15
24 25 25 25 25 26 26 26 25 25 25 25 25 26 26 25 25 24 24 23 22 20 20 19 18 18 18 18 17 17 17 17 17 16 16 16 16 16 16 16 15 15 15 15
24 23 23 24 24 24 25 25 25 25 25 25 25 25 25 24 24 23 23 22 21 20 19 19 18 18 17 17 17 17 17 16 16 16 16 16 16 16 15 15 15 15 15 14
23 23 24 24 25 25 24 24 25 25 25 25 25 25 25 24 24 23 22 21 20 19 19 18 17 17 17 17 16 16 16 16 16 16 16 16 15 15 15 15 15 15 14 14
23 23 23 24 24 25 24 24 24 24 25 25 25 25 25 25 24 23 22 21 20 19 18 18 17 17 16 16 16 16 16 16 16 16 15 15 15 15 15 14 14 14 14 14
22 22 23 23 24 24 24 24 24 24 24 24 24 24 25 24 23 22 21 21 20 19 18 17 17 16 16 15 15 15 15 15 15 15 15 15 15 14 14 14 14 14 14 14
22 21 22 23 23 23 23 24 24 24 24 24 24 24 24 23 23 22 21 20 19 19 18 17 16 15 15 15 15 15 15 15 14 15 14 14 14 14 14 14 14 13 13 13
21 21 22 22 22 21 23 24 24 24 24 24 24 23 23 22 21 21 20 19 19 18 17 16 16 15 15 15 14 14 14 14 14 14 14 14 14 14 13 13 13 13 13 13
20 20 21 22 22 22 23 23 23 23 22 23 23 23 22 21 21 20 19 19 18 17 17 16 15 15 14 14 14 14 14 14 14 13 13 13 13 13 13 13 13 13 13 13
19 20 21 21 21 21 23 23 22 22 21 22 22 22 21 21 22 21 18 18 17 16 16 15 15 14 14 14 14 14 13 13 13 13 13 13 13 13 13 13 13 13 13 13
19 19 20 20 21 22 22 21 21 21 21 20 20 20 20 20 20 18 17 17 16 15 15 14 14 14 14 14 13 13 13 13 13 13 13 13 13 13 13 13 13 12 12 12
20 20 20 20 20 21 20 20 21 20 19 19 19 18 18 17 17 17 16 16 15 15 14 14 14 13 13 13 13 13 13 13 13 13 12 13 12 12 13 12 12 12 12 12
20 20 21 20 20 19 18 18 17 17 17 17 17 17 17 17 16 16 16 15 15 14 14 13 13 13 13 13 13 13 13 12 12 12 12 12 12 12 12 12 12 12 12 12
19 18 19 19 19 18 17 17 16 16 16 16 16 16 16 16 16 15 15 14 14 13 13 13 13 13 13 12 12 12 12 12 12 12 12 12 12 12 12 12 12 12 12 12
18 18 18 18 18 18 17 17 16 16 16 15 15 15 16 15 15 15 14 14 13 13 13 13 12 12 12 12 12 12 12 12 11 11 11 11 11 11 11 11 11 11 11 11
18 18 18 18 18 18 17 16 15 15 15 15 15 15 15 15 15 14 14 13 13 13 12 12 12 12 12 12 12 11 11 11 11 11 11 11 11 11 11 11 11 11 11 11
Wind_Speed
9 10 11 11 11 7 6 7 6 4 2 4 5 5 5 3 5 5 6 6 6 6 5 5 6 6 6 6 7 7 6 6 5 4 3 3 2 2 1 1 0 1 1 1
10 12 10 7 7 8 9 9 7 4 3 4 5 6 5 4 4 5 5 6 6 6 6 5 5 6 6 7 7 7 7 6 5 4 3 2 2 2 1 1 1 1 1 2
13 6 7 9 10 10 11 10 8 5 4 6 6 8 7 6 4 4 5 6 6 7 7 6 6 6 7 6 7 6 7 7 6 6 4 3 3 2 1 1 1 0 1 1
11 7 8 11 11 11 10 8 8 7 8 7 7 8 7 7 6 6 5 5 6 7 7 6 6 7 7 7 7 7 7 7 7 7 6 5 3 2 2 1 1 1 0 1
9 9 10 12 11 11 8 4 7 9 10 9 8 9 6 6 6 5 5 4 4 5 6 6 6 6 6 7 7 7 7 7 7 7 7 6 4 3 2 1 1 1 0 1
8 7 8 9 8 8 6 6 6 9 10 12 10 10 7 5 5 4 4 4 4 4 5 5 5 6 6 6 6 7 7 6 6 6 6 5 4 3 3 2 1 1 0 0
10 10 8 7 9 10 10 9 8 9 10 10 7 8 6 1 1 2 2 4 4 5 5 5 5 6 6 7 7 7 7 6 6 6 5 5 4 4 4 3 2 1 1 1
11 11 10 9 10 9 13 13 9 8 9 7 7 8 4 1 1 1 2 3 4 5 5 5 5 5 6 7 7 7 7 7 7 6 5 4 4 3 2 2 2 1 1 1
9 8 9 9 9 10 11 12 11 10 9 9 7 6 5 4 3 2 2 3 4 4 4 5 5 5 5 6 7 7 7 7 6 6 5 4 3 2 2 2 2 1 1 1
6 7 8 8 9 10 10 9 8 10 9 10 9 10 6 5 4 3 3 4 4 5 5 4 5 5 5 6 6 6 6 6 6 5 4 3 3 3 3 2 1 1 1 1
8 8 8 10 10 11 10 11 9 10 10 10 9 5 1 3 2 3 3 3 4 5 5 5 5 5 5 5 5 5 5 5 5 4 3 3 3 3 2 2 2 2 2 2
9 7 9 10 8 7 11 11 12 10 10 10 11 6 3 1 1 2 2 3 4 4 5 5 5 5 5 5 5 4 4 4 4 4 3 3 3 2 2 2 2 2 2 2
8 7 9 10 11 10 11 12 12 12 11 11 13 7 4 2 1 2 2 2 3 4 5 5 5 5 5 5 5 4 4 3 3 3 3 3 2 2 2 1 1 2 2 2
6 9 11 11 8 10 12 13 13 14 12 13 13 10 5 4 4 3 3 3 4 4 5 5 5 4 4 4 4 4 3 3 3 3 3 3 2 2 2 2 2 2 2 2
7 11 12 11 9 9 12 13 14 15 15 14 12 11 8 6 5 4 3 3 4 4 5 5 4 4 4 4 4 3 3 2 2 3 3 3 3 3 2 2 2 2 3 3
7 9 11 12 11 12 13 14 14 15 14 14 13 11 6 5 5 4 3 3 4 4 4 5 4 4 4 4 4 3 3 2 2 3 3 3 3 3 3 3 3 3 3 2
7 8 10 12 11 12 15 13 14 13 12 12 13 9 5 6 6 5 4 4 4 4 5 5 5 4 4 4 4 3 3 3 3 2 3 3 3 3 4 4 3 3 3 3
9 10 9 10 10 14 7 5 8 10 10 10 9 7 6 6 5 4 3 3 3 3 4 5 5 5 4 4 4 3 3 3 3 3 3 3 4 4 4 4 4 4 3 3
10 10 9 10 12 12 7 7 8 9 9 7 8 7 5 4 5 4 2 2 3 2 3 4 5 5 5 4 4 4 3 3 3 3 3 3 3 3 4 3 3 4 4 4
9 10 10 10 12 12 6 6 4 6 8 4 5 5 5 6 7 4 2 2 2 2 3 3 4 5 5 5 4 4 4 3 3 3 3 2 2 3 3 3 3 3 4 4
10 10 13 13 13 8 2 5 6 8 3 2 2 3 4 5 4 1 2 2 2 2 3 4 5 5 5 5 5 4 4 4 3 3 3 3 3 4 4 3 3 3 4 4
9 9 11 11 12 8 3 6 5 1 2 1 1 1 2 1 1 1 2 2 2 3 3 4 4 4 4 5 5 4 4 3 3 3 3 3 3 4 3 3 3 3 3 4
7 5 4 5 3 3 3 2 0 1 1 1 1 1 1 2 2 2 2 2 2 3 3 3 4 4 4 4 4 4 3 3 3 2 2 3 3 3 3 4 4 4 4 3
4 3 4 4 3 3 3 2 2 2 2 2 2 2 2 2 2 2 2 2 2 2 3 3 4 4 4 4 4 3 3 3 3 3 3 3 3 3 3 3 4 3 3 3
5 4 5 6 5 3 4 2 1 1 1 1 2 3 2 2 2 2 2 2 2 2 2 3 4 4 4 3 3 3 3 3 3 3 3 3 3 3 3 3 2 3 2 1
7 7 7 6 5 4 4 2 2 1 2 2 2 3 3 3 2 2 2 2 2 2 3 3 4 4 3 3 3 3 3 3 3 3 3 3 3 3 3 3 2 1 1 2
Wind_Direction
191 209 212 210 222 252 241 235 231 220 218 241 234 243 236 220 215 215 209 203 200 200 187 179 181 180 179 179 180 182 184 183 190 190 195 197 197 205 195 202 172 290 313 303
197 218 221 218 217 231 232 235 230 211 189 243 245 250 235 226 223 221 221 215 209 202 186 183 186 184 182 177 177 181 184 180 187 184 186 189 204 202 193 204 129 301 291 286
214 206 202 209 209 221 229 237 240 234 217 222 245 236 220 213 217 220 222 225 220 212 200 191 192 190 185 179 180 185 187 182 186 183 177 170 169 189 183 175 151 284 310 296
222 203 197 211 216 223 229 231 241 236 235 227 235 252 216 214 218 218 215 215 215 204 200 196 191 190 190 186 180 183 178 178 179 180 178 179 186 193 205 205 155 157 339 318
209 204 209 218 220 226 239 228 237 239 241 249 232 254 234 205 229 225 213 213 215 201 195 192 191 186 185 185 178 171 170 173 175 178 179 187 197 197 183 178 135 207 160 320
219 201 219 226 220 220 213 211 221 232 236 239 236 248 248 217 235 240 215 207 207 196 185 184 180 177 175 175 170 163 161 162 167 176 179 184 183 183 174 172 168 195 157 347
204 201 204 216 206 198 210 220 218 217 222 234 213 238 251 260 261 256 230 204 198 191 176 168 167 170 169 169 169 165 159 160 165 170 175 179 188 191 189 195 172 207 258 275
205 200 194 201 214 208 211 226 236 240 237 230 198 234 228 134 244 246 229 192 181 185 176 170 164 161 163 165 166 165 161 162 166 169 174 180 190 198 191 191 201 206 254 286
213 207 181 197 213 224 213 225 243 257 261 258 233 222 223 202 214 211 194 177 183 180 176 173 163 160 159 159 160 163 162 163 165 165 167 175 184 196 199 198 212 230 249 243
229 219 190 191 204 214 232 223 229 239 246 251 244 237 234 203 219 215 207 188 185 176 170 166 165 161 159 156 154 159 163 166 167 170 177 167 165 185 203 207 199 230 225 231
231 222 197 192 207 207 208 214 226 238 248 256 256 242 187 208 227 229 219 194 182 177 175 170 166 160 155 150 154 162 163 167 172 171 161 153 161 182 196 204 219 227 219 204
216 230 224 209 207 227 217 219 220 234 239 245 264 260 115 166 248 253 246 202 180 181 175 165 157 153 153 154 158 165 167 170 170 163 163 165 171 177 194 206 222 213 202 201
199 217 222 208 201 209 219 223 229 238 249 246 250 245 139 144 247 250 245 206 180 179 173 163 159 158 160 161 161 162 167 172 175 164 168 167 181 186 204 212 225 214 198 195
216 224 234 239 230 209 217 224 229 234 241 246 247 252 231 233 254 254 237 212 188 181 174 169 167 166 164 165 163 163 163 169 175 178 183 177 180 186 197 208 210 207 200 198
217 229 235 248 251 235 228 229 226 233 244 252 252 253 257 262 267 268 246 208 193 186 178 176 178 171 170 170 171 167 164 170 180 195 202 195 190 189 200 204 200 202 207 207
216 235 232 236 237 237 239 235 231 233 239 246 252 254 260 261 257 247 234 216 202 193 187 183 182 177 179 180 182 176 173 174 186 205 212 206 203 199 204 207 201 195 208 217
208 224 231 235 228 235 235 230 229 229 233 239 246 252 243 239 249 249 240 222 215 205 191 188 185 182 185 188 187 188 186 186 192 205 209 208 208 208 213 211 200 199 205 207
222 223 231 236 226 234 231 215 228 230 233 240 246 243 246 251 254 247 232 224 219 210 197 192 189 181 184 186 187 186 182 191 199 206 212 214 214 212 214 215 212 209 211 210
223 222 230 230 231 237 224 204 212 225 234 237 238 238 243 235 236 227 216 238 227 217 206 196 191 184 182 189 190 186 191 200 209 216 221 222 216 213 216 217 224 222 216 217
204 221 231 233 237 238 218 172 195 226 234 218 225 236 236 229 239 233 199 216 209 188 190 191 183 175 179 186 185 191 200 209 221 229 237 232 227 220 220 218 229 225 221 221
197 210 225 235 240 239 184 168 188 223 234 115 197 231 240 246 264 281 192 189 183 171 177 180 181 177 178 180 186 199 207 221 235 240 240 233 233 229 221 215 221 224 225 222
212 214 218 228 235 230 145 177 209 285 42 114 201 243 267 282 234 237 207 187 181 178 179 176 179 177 176 183 192 205 215 229 236 239 246 239 236 233 211 208 213 216 222 216
228 247 242 238 244 81 145 171 207 294 261 280 267 260 232 245 241 238 225 196 180 179 179 179 181 176 180 189 199 213 220 219 232 241 246 246 235 225 210 207 208 211 215 227
219 236 239 240 223 196 179 186 234 250 255 270 264 260 241 235 240 235 230 208 202 198 188 187 188 186 186 191 201 208 210 211 218 232 236 236 224 216 209 218 218 219 220 226
254 226 233 237 232 224 213 203 221 221 205 256 271 269 256 249 246 235 234 224 219 213 201 195 196 197 198 195 205 199 191 198 208 219 225 231 226 214 212 222 240 233 228 246
245 245 248 252 239 241 225 225 236 235 243 259 267 270 267 258 249 236 243 238 229 221 210 206 208 207 205 200 206 207 194 194 203 214 226 232 229 220 222 216 217 118 211 141
Height
1506 1504 1501 1499 1499 1498 1499 1501 1503 1503 1503 1504 1504 1504 1504 1506 1508 1508 1510 1512 1514 1516 1519 1520 1521 1523 1524 1525 1527 1528 1530 1531 1532 1533 1534 1535 1536 1536 1536 1536 1536 1536 1536 1535
1503 1501 1497 1498 1500 1502 1501 1503 1503 1503 1503 1505 1504 1503 1502 1505 1506 1508 1509 1510 1512 1515 1517 1518 1520 1521 1522 1523 1525 1527 1529 1530 1531 1532 1533 1533 1534 1535 1535 1535 1535 1535 1535 1534
1497 1495 1497 1500 1502 1504 1502 1502 1501 1503 1502 1502 1504 1504 1501 1501 1505 1507 1508 1509 1510 1512 1515 1517 1518 1519 1521 1522 1523 1525 1526 1528 1529 1530 1532 1532 1533 1533 1534 1534 1534 1534 1533 1533
1495 1494 1498 1499 1499 1500 1502 1497 1500 1502 1504 1501 1502 1506 1498 1497 1500 1503 1505 1507 1508 1510 1513 1515 1516 1517 1519 1520 1521 1522 1524 1525 1527 1528 1530 1531 1531 1532 1533 1533 1533 1532 1532 1532
1493 1493 1496 1498 1496 1497 1496 1497 1499 1499 1501 1502 1500 1504 1495 1494 1497 1498 1502 1505 1506 1508 1510 1512 1514 1515 1517 1518 1519 1520 1522 1523 1525 1526 1528 1529 1530 1531 1531 1531 1531 1531 1531 1531
1489 1493 1494 1493 1494 1496 1497 1499 1499 1498 1497 1509 1500 1503 1498 1491 1494 1496 1499 1502 1505 1507 1508 1510 1512 1513 1515 1516 1518 1519 1520 1522 1523 1524 1525 1526 1527 1528 1529 1529 1529 1530 1530 1529
1492 1492 1493 1494 1494 1496 1497 1501 1506 1507 1506 1503 1493 1500 1497 1490 1492 1495 1498 1501 1503 1505 1507 1508 1510 1512 1513 1514 1516 1518 1519 1520 1521 1522 1523 1524 1525 1526 1527 1527 1528 1528 1529 1529
1491 1493 1490 1491 1492 1492 1494 1494 1503 1509 1505 1495 1495 1498 1491 1490 1494 1497 1498 1500 1501 1503 1505 1507 1509 1510 1512 1513 1515 1516 1517 1518 1520 1521 1521 1522 1524 1525 1526 1526 1526 1527 1527 1527
1485 1487 1485 1488 1489 1489 1491 1491 1486 1493 1495 1498 1491 1490 1489 1490 1493 1495 1496 1498 1500 1502 1504 1506 1507 1509 1511 1512 1513 1514 1516 1517 1518 1519 1520 1521 1522 1523 1523 1524 1524 1525 1525 1525
1481 1488 1484 1486 1488 1488 1486 1486 1491 1494 1505 1505 1495 1491 1488 1488 1490 1492 1494 1496 1499 1501 1503 1504 1506 1507 1509 1511 1512 1513 1514 1516 1516 1517 1519 1520 1520 1521 1522 1522 1522 1523 1523 1523
1482 1488 1486 1486 1488 1486 1489 1489 1489 1489 1489 1500 1501 1493 1481 1486 1489 1490 1492 1495 1498 1500 1502 1503 1505 1506 1508 1509 1510 1512 1513 1514 1515 1516 1516 1517 1518 1519 1520 1520 1521 1521 1521 1521
1483 1484 1485 1483 1482 1482 1483 1485 1488 1496 1495 1493 1494 1492 1482 1485 1488 1491 1492 1495 1497 1499 1500 1502 1503 1505 1506 1507 1509 1510 1511 1513 1514 1514 1515 1516 1517 1517 1518 1518 1518 1519 1518 1519
1483 1486 1491 1488 1488 1485 1484 1483 1483 1486 1487 1490 1494 1492 1484 1486 1489 1491 1492 1494 1496 1498 1499 1501 1502 1503 1505 1506 1507 1509 1510 1511 1512 1513 1514 1514 1515 1515 1516 1516 1516 1516 1517 1517
1484 1483 1485 1485 1479 1478 1483 1483 1482 1484 1487 1487 1485 1484 1482 1484 1486 1489 1491 1493 1495 1497 1498 1499 1501 1502 1503 1504 1506 1507 1508 1509 1510 1511 1512 1512 1513 1513 1514 1514 1514 1514 1515 1515
1482 1481 1479 1477 1474 1475 1478 1479 1480 1482 1480 1483 1480 1480 1480 1481 1485 1488 1490 1492 1493 1495 1497 1498 1499 1500 1501 1503 1504 1505 1506 1507 1508 1509 1509 1510 1510 1511 1511 1512 1512 1512 1513 1513
1481 1480 1479 1479 1475 1475 1476 1475 1475 1477 1477 1477 1477 1479 1478 1482 1485 1487 1489 1490 1492 1493 1495 1496 1498 1499 1500 1501 1502 1503 1503 1504 1505 1506 1507 1508 1508 1508 1509 1509 1510 1510 1511 1511
1479 1481 1481 1477 1473 1476 1477 1471 1471 1473 1473 1475 1476 1476 1478 1481 1483 1485 1487 1489 1490 1492 1493 1495 1496 1497 1498 1499 1500 1501 1502 1502 1503 1504 1505 1505 1506 1506 1507 1507 1507 1508 1508 1509
1479 1480 1477 1474 1479 1486 1470 1467 1468 1470 1471 1472 1473 1475 1478 1481 1483 1485 1486 1487 1488 1490 1492 1493 1494 1495 1496 1497 1498 1499 1500 1501 1501 1502 1502 1503 1503 1504 1504 1505 1505 1505 1506 1506
1478 1478 1475 1474 1476 1472 1468 1467 1469 1471 1472 1471 1472 1475 1477 1480 1481 1482 1484 1486 1487 1489 1490 1491 1492 1493 1494 1495 1496 1497 1498 1499 1499 1500 1500 1501 1501 1501 1502 1502 1502 1502 1503 1503
1476 1476 1475 1472 1476 1476 1465 1465 1469 1472 1473 1471 1473 1474 1476 1478 1477 1478 1483 1484 1485 1486 1488 1489 1490 1491 1492 1493 1494 1495 1496 1496 1497 1497 1498 1498 1498 1498 1498 1498 1499 1499 1500 1500
1473 1474 1473 1471 1471 1463 1464 1467 1470 1476 1471 1473 1473 1475 1476 1476 1478 1481 1482 1483 1484 1484 1485 1486 1487 1488 1489 1490 1491 1492 1493 1494 1494 1494 1494 1494 1495 1495 1495 1495 1495 1496 1497 1498
1466 1466 1468 1467 1470 1469 1466 1467 1469 1470 1472 1473 1475 1476 1477 1477 1478 1480 1481 1482 1482 1483 1483 1484 1485 1486 1487 1488 1489 1490 1490 1491 1491 1491 1491 1491 1492 1492 1493 1493 1493 1494 1495 1495
1462 1462 1458 1461 1465 1467 1468 1469 1472 1473 1473 1474 1475 1476 1477 1477 1478 1479 1480 1481 1481 1481 1482 1482 1483 1484 1485 1486 1487 1488 1488 1488 1488 1488 1488 1489 1489 1489 1490 1490 1491 1491 1492 1493
1463 1466 1464 1464 1464 1467 1469 1470 1472 1473 1473 1474 1475 1475 1476 1476 1477 1478 1478 1479 1479 1480 1480 1480 1481 1482 1483 1484 1485 1485 1486 1486 1486 1486 1486 1486 1486 1487 1488 1488 1489 1489 1490 1490
1462 1463 1462 1464 1465 1467 1468 1469 1470 1471 1472 1473 1474 1474 1475 1475 1475 1476 1476 1477 1478 1478 1478 1479 1479 1480 1481 1482 1482 1483 1483 1483 1483 1483 1483 1484 1484 1485 1485 1486 1486 1487 1487 1488
1463 1463 1462 1461 1464 1464 1466 1468 1470 1470 1471 1472 1472 1473 1473 1474 1474 1474 1475 1475 1475 1475 1476 1476 1477 1478 1479 1479 1480 1480 1480 1480 1481 1481 1481 1481 1482 1482 1482 1483 1483 1483 1484 1485